Retour au catalogue

COSMOS 1275 DEB

ActifPO
NORAD 42179·DEBRIS·🇷🇺 Russia

Lancé Jun 4, 1981 depuis Plesetsk Cosmodrome

Loading…

Prochains Passages (prochaines 24 heures)

TLE

FraisSource: Space-Track

Époque: Sep 14, 2026, 20:52 UTC

1 42179U 81053ST  26257.86984941  .00000495  00000-0  47284-3 0  9997
2 42179  83.1285 317.4671 0097361  42.5227 318.3418 13.76484670 66533

Suivez COSMOS 1275 DEB en temps réel avec AllMySat

Download on the App Store